Location: Shepherdstown, WV
(39.4326°N, 77.8042°W)
Time: 16:12:24
(UTC-04:00)

Tiros 1 despin weight - Pass Details

Date: 01 August 2021
Orbit: 593 x 641 km, 48.2° (Epoch: 18 September)

Event Time Altitude Azimuth Distance (km) Brightness Sun altitude
Rises 18:28:02 0° 300° (WNW) 2,943 ? 20.6°
Reaches altitude 10° 18:30:32 10° 309° (NW) 2,031 ? 20.1°
Maximum altitude 18:34:53 37° 17° (NNE) 999 ? 19.3°
Drops below altitude 10° 18:39:12 10° 85° (E) 2,014 ? 18.4°
Sets 18:41:39 0° 93° (E) 2,913 ? 18.0°
